Powrót do katalogu

INTERBALL AURORA

AktywnyNaukaHEO
NORAD 24293·PAYLOAD·🇷🇺 Russia

Wystrzelony Aug 29, 1996 z Plesetsk Cosmodrome

Loading…

Następne Przeloty (najbliższe 24 godziny)

TLE

ŚwieżeSource: Space-Track

Epoka: Sep 11, 2026, 14:48 UTC

1 24293U 96050C   26254.61691380  .00000049  00000-0  00000-0 0  9996
2 24293  62.6708 134.6575 5594463 271.4191  28.6837  4.14736879454908

Śledź INTERBALL AURORA w czasie rzeczywistym z AllMySat

Download on the App Store